Index of /20260430/WXO-DD/model_gdps/15km/12/219
Name Last modified Size Description
Parent Directory -
20260430T12Z_MSC_GDPS_AirTemp_AGL-120m_LatLon0.15_PT219H.grib2 2026-04-30 16:34 909K
20260430T12Z_MSC_GDPS_AirTemp_AGL-2m_LatLon0.15_PT219H.grib2 2026-04-30 16:34 1.0M
20260430T12Z_MSC_GDPS_AirTemp_AGL-40m_LatLon0.15_PT219H.grib2 2026-04-30 16:34 810K
20260430T12Z_MSC_GDPS_AirTemp_AGL-80m_LatLon0.15_PT219H.grib2 2026-04-30 16:34 917K
20260430T12Z_MSC_GDPS_AirTemp_IsbL-0001_LatLon0.15_PT219H.grib2 2026-04-30 16:34 662K
20260430T12Z_MSC_GDPS_AirTemp_IsbL-0005_LatLon0.15_PT219H.grib2 2026-04-30 16:34 700K
20260430T12Z_MSC_GDPS_AirTemp_IsbL-0500_LatLon0.15_PT219H.grib2 2026-04-30 16:34 1.0M
20260430T12Z_MSC_GDPS_AirTemp_IsbL-0700_LatLon0.15_PT219H.grib2 2026-04-30 16:34 960K
20260430T12Z_MSC_GDPS_AirTemp_IsbL-0850_LatLon0.15_PT219H.grib2 2026-04-30 16:34 1.1M
20260430T12Z_MSC_GDPS_AirTemp_IsbL-0925_LatLon0.15_PT219H.grib2 2026-04-30 16:34 1.1M
20260430T12Z_MSC_GDPS_AirTemp_IsbL-1000_LatLon0.15_PT219H.grib2 2026-04-30 16:34 1.1M
20260430T12Z_MSC_GDPS_Albedo_Sfc_LatLon0.15_PT219H.grib2 2026-04-30 16:34 243K
20260430T12Z_MSC_GDPS_ConvectivePrecip-Accum_Sfc_LatLon0.15_PT219H.grib2 2026-04-30 16:34 3.7M
20260430T12Z_MSC_GDPS_DewPointDepression_AGL-2m_LatLon0.15_PT219H.grib2 2026-04-30 16:34 764K
20260430T12Z_MSC_GDPS_DewPointDepression_IsbL-0500_LatLon0.15_PT219H.grib2 2026-04-30 16:34 1.0M
20260430T12Z_MSC_GDPS_DewPointDepression_IsbL-0700_LatLon0.15_PT219H.grib2 2026-04-30 16:34 1.1M
20260430T12Z_MSC_GDPS_DewPointDepression_IsbL-0850_LatLon0.15_PT219H.grib2 2026-04-30 16:34 1.2M
20260430T12Z_MSC_GDPS_DewPointDepression_IsbL-0925_LatLon0.15_PT219H.grib2 2026-04-30 16:34 1.0M
20260430T12Z_MSC_GDPS_DewPointDepression_IsbL-1000_LatLon0.15_PT219H.grib2 2026-04-30 16:34 1.0M
20260430T12Z_MSC_GDPS_DewPoint_AGL-2m_LatLon0.15_PT219H.grib2 2026-04-30 16:34 616K
20260430T12Z_MSC_GDPS_DownwardLongwaveRadiationFlux-Accum_Sfc_LatLon0.15_PT219H.grib2 2026-04-30 16:34 729K
20260430T12Z_MSC_GDPS_DownwardShortwaveRadiationFlux-Accum_Sfc_LatLon0.15_PT219H.grib2 2026-04-30 16:34 900K
20260430T12Z_MSC_GDPS_FreezingRain-Accum_Sfc_LatLon0.15_PT219H.grib2 2026-04-30 16:34 455K
20260430T12Z_MSC_GDPS_GeopotentialHeight_IsbL-0001_LatLon0.15_PT219H.grib2 2026-04-30 16:34 436K
20260430T12Z_MSC_GDPS_GeopotentialHeight_IsbL-0005_LatLon0.15_PT219H.grib2 2026-04-30 16:34 494K
20260430T12Z_MSC_GDPS_GeopotentialHeight_IsbL-0500_LatLon0.15_PT219H.grib2 2026-04-30 16:34 599K
20260430T12Z_MSC_GDPS_GeopotentialHeight_IsbL-0700_LatLon0.15_PT219H.grib2 2026-04-30 16:34 691K
20260430T12Z_MSC_GDPS_GeopotentialHeight_IsbL-0850_LatLon0.15_PT219H.grib2 2026-04-30 16:34 715K
20260430T12Z_MSC_GDPS_GeopotentialHeight_IsbL-0925_LatLon0.15_PT219H.grib2 2026-04-30 16:34 737K
20260430T12Z_MSC_GDPS_GeopotentialHeight_IsbL-1000_LatLon0.15_PT219H.grib2 2026-04-30 16:34 791K
20260430T12Z_MSC_GDPS_IcePellets-Accum_Sfc_LatLon0.15_PT219H.grib2 2026-04-30 16:34 179K
20260430T12Z_MSC_GDPS_LatentHeatNetFlux_Sfc_LatLon0.15_PT219H.grib2 2026-04-30 16:34 725K
20260430T12Z_MSC_GDPS_NetLongwaveRadiationFlux-Accum_Sfc_LatLon0.15_PT219H.grib2 2026-04-30 16:34 924K
20260430T12Z_MSC_GDPS_NetShortwaveRadiationFlux-Accum_Sfc_LatLon0.15_PT219H.grib2 2026-04-30 16:34 880K
20260430T12Z_MSC_GDPS_O3MixingRatio_Sfc_LatLon0.15_PT219H.grib2 2026-04-30 16:46 1.9M
20260430T12Z_MSC_GDPS_O3_EAtm_LatLon0.15_PT219H.grib2 2026-04-30 16:46 2.4M
20260430T12Z_MSC_GDPS_PlanetaryBoundaryLayerHeight_Sfc_LatLon0.15_PT219H.grib2 2026-04-30 16:34 2.5M
20260430T12Z_MSC_GDPS_Precip-Accum_Sfc_LatLon0.15_PT219H.grib2 2026-04-30 16:34 5.5M
20260430T12Z_MSC_GDPS_PrecipRate_Sfc_LatLon0.15_PT219H.grib2 2026-04-30 16:34 3.1M
20260430T12Z_MSC_GDPS_Pressure_MSL_LatLon0.15_PT219H.grib2 2026-04-30 16:34 727K
20260430T12Z_MSC_GDPS_Pressure_Sfc_LatLon0.15_PT219H.grib2 2026-04-30 16:34 1.1M
20260430T12Z_MSC_GDPS_RadiativeTemp_Sfc_LatLon0.15_PT219H.grib2 2026-04-30 16:34 498K
20260430T12Z_MSC_GDPS_Rain-Accum_Sfc_LatLon0.15_PT219H.grib2 2026-04-30 16:34 4.3M
20260430T12Z_MSC_GDPS_RelativeHumidity_AGL-2m_LatLon0.15_PT219H.grib2 2026-04-30 16:34 1.0M
20260430T12Z_MSC_GDPS_Runoff-Accum_Sfc_LatLon0.15_PT219H.grib2 2026-04-30 16:34 137K
20260430T12Z_MSC_GDPS_SensibleHeatNetFlux_Sfc_LatLon0.15_PT219H.grib2 2026-04-30 16:34 480K
20260430T12Z_MSC_GDPS_Snow-Accum_Sfc_LatLon0.15_PT219H.grib2 2026-04-30 16:34 2.1M
20260430T12Z_MSC_GDPS_SnowDepth_Sfc_LatLon0.15_PT219H.grib2 2026-04-30 16:34 1.7M
20260430T12Z_MSC_GDPS_SoilTemp_DBS-0to10cm_LatLon0.15_PT219H.grib2 2026-04-30 16:34 516K
20260430T12Z_MSC_GDPS_SoilTemp_Sfc_LatLon0.15_PT219H.grib2 2026-04-30 16:34 581K
20260430T12Z_MSC_GDPS_SoilVolumetricWaterContent_DBS-0to10cm_LatLon0.15_PT219H.grib2 2026-04-30 16:34 596K
20260430T12Z_MSC_GDPS_SoilVolumetricWaterContent_DBS-0to1cm_LatLon0.15_PT219H.grib2 2026-04-30 16:34 646K
20260430T12Z_MSC_GDPS_SpecificHumidity_AGL-120m_LatLon0.15_PT219H.grib2 2026-04-30 16:34 1.1M
20260430T12Z_MSC_GDPS_SpecificHumidity_AGL-2m_LatLon0.15_PT219H.grib2 2026-04-30 16:34 1.2M
20260430T12Z_MSC_GDPS_SpecificHumidity_AGL-40m_LatLon0.15_PT219H.grib2 2026-04-30 16:34 1.1M
20260430T12Z_MSC_GDPS_SpecificHumidity_AGL-80m_LatLon0.15_PT219H.grib2 2026-04-30 16:34 1.1M
20260430T12Z_MSC_GDPS_SpecificHumidity_IsbL-0001_LatLon0.15_PT219H.grib2 2026-04-30 16:34 1.1M
20260430T12Z_MSC_GDPS_SpecificHumidity_IsbL-0005_LatLon0.15_PT219H.grib2 2026-04-30 16:34 1.0M
20260430T12Z_MSC_GDPS_SpecificHumidity_IsbL-0500_LatLon0.15_PT219H.grib2 2026-04-30 16:34 1.5M
20260430T12Z_MSC_GDPS_SpecificHumidity_IsbL-0700_LatLon0.15_PT219H.grib2 2026-04-30 16:34 1.6M
20260430T12Z_MSC_GDPS_SpecificHumidity_IsbL-0850_LatLon0.15_PT219H.grib2 2026-04-30 16:34 2.0M
20260430T12Z_MSC_GDPS_SpecificHumidity_IsbL-0925_LatLon0.15_PT219H.grib2 2026-04-30 16:34 1.6M
20260430T12Z_MSC_GDPS_SpecificHumidity_IsbL-1000_LatLon0.15_PT219H.grib2 2026-04-30 16:34 1.5M
20260430T12Z_MSC_GDPS_SpecificHumidity_Sfc_LatLon0.15_PT219H.grib2 2026-04-30 16:34 688K
20260430T12Z_MSC_GDPS_Thickness_IsbL-0850to0700_LatLon0.15_PT219H.grib2 2026-04-30 16:34 471K
20260430T12Z_MSC_GDPS_Thickness_IsbL-1000to0500_LatLon0.15_PT219H.grib2 2026-04-30 16:34 375K
20260430T12Z_MSC_GDPS_Thickness_IsbL-1000to0850_LatLon0.15_PT219H.grib2 2026-04-30 16:34 491K
20260430T12Z_MSC_GDPS_TotalCloudCover_Sfc_LatLon0.15_PT219H.grib2 2026-04-30 16:34 846K
20260430T12Z_MSC_GDPS_UVIndex-ClearSky_Sfc_LatLon0.15_PT219H.grib2 2026-04-30 16:46 1.0M
20260430T12Z_MSC_GDPS_UVIndex_Sfc_LatLon0.15_PT219H.grib2 2026-04-30 16:46 1.5M
20260430T12Z_MSC_GDPS_UpwardLongwaveRadiationFlux_NTAtm_LatLon0.15_PT219H.grib2 2026-04-30 16:34 848K
20260430T12Z_MSC_GDPS_VerticalVelocity_IsbL-0500_LatLon0.15_PT219H.grib2 2026-04-30 16:34 1.3M
20260430T12Z_MSC_GDPS_VerticalVelocity_IsbL-0700_LatLon0.15_PT219H.grib2 2026-04-30 16:34 1.1M
20260430T12Z_MSC_GDPS_VerticalVelocity_IsbL-0850_LatLon0.15_PT219H.grib2 2026-04-30 16:34 1.3M
20260430T12Z_MSC_GDPS_WindDir_AGL-10m_LatLon0.15_PT219H.grib2 2026-04-30 16:34 1.3M
20260430T12Z_MSC_GDPS_WindDir_AGL-120m_LatLon0.15_PT219H.grib2 2026-04-30 16:34 1.3M
20260430T12Z_MSC_GDPS_WindDir_AGL-40m_LatLon0.15_PT219H.grib2 2026-04-30 16:34 1.4M
20260430T12Z_MSC_GDPS_WindDir_AGL-80m_LatLon0.15_PT219H.grib2 2026-04-30 16:34 1.4M
20260430T12Z_MSC_GDPS_WindDir_IsbL-0001_LatLon0.15_PT219H.grib2 2026-04-30 16:34 655K
20260430T12Z_MSC_GDPS_WindDir_IsbL-0005_LatLon0.15_PT219H.grib2 2026-04-30 16:34 811K
20260430T12Z_MSC_GDPS_WindDir_IsbL-0500_LatLon0.15_PT219H.grib2 2026-04-30 16:34 1.4M
20260430T12Z_MSC_GDPS_WindDir_IsbL-0700_LatLon0.15_PT219H.grib2 2026-04-30 16:34 1.6M
20260430T12Z_MSC_GDPS_WindDir_IsbL-0850_LatLon0.15_PT219H.grib2 2026-04-30 16:34 1.9M
20260430T12Z_MSC_GDPS_WindDir_IsbL-0925_LatLon0.15_PT219H.grib2 2026-04-30 16:34 2.0M
20260430T12Z_MSC_GDPS_WindDir_IsbL-1000_LatLon0.15_PT219H.grib2 2026-04-30 16:34 2.0M
20260430T12Z_MSC_GDPS_WindGust-Max_AGL-10m_LatLon0.15_PT219H.grib2 2026-04-30 16:34 2.2M
20260430T12Z_MSC_GDPS_WindGust-Min_AGL-10m_LatLon0.15_PT219H.grib2 2026-04-30 16:34 2.1M
20260430T12Z_MSC_GDPS_WindGust_AGL-10m_LatLon0.15_PT219H.grib2 2026-04-30 16:34 2.1M
20260430T12Z_MSC_GDPS_WindSpeed_AGL-10m_LatLon0.15_PT219H.grib2 2026-04-30 16:34 1.1M
20260430T12Z_MSC_GDPS_WindSpeed_AGL-120m_LatLon0.15_PT219H.grib2 2026-04-30 16:34 1.2M
20260430T12Z_MSC_GDPS_WindSpeed_AGL-40m_LatLon0.15_PT219H.grib2 2026-04-30 16:34 1.2M
20260430T12Z_MSC_GDPS_WindSpeed_AGL-80m_LatLon0.15_PT219H.grib2 2026-04-30 16:34 1.2M
20260430T12Z_MSC_GDPS_WindSpeed_IsbL-0001_LatLon0.15_PT219H.grib2 2026-04-30 16:34 652K
20260430T12Z_MSC_GDPS_WindSpeed_IsbL-0005_LatLon0.15_PT219H.grib2 2026-04-30 16:34 695K
20260430T12Z_MSC_GDPS_WindSpeed_IsbL-0500_LatLon0.15_PT219H.grib2 2026-04-30 16:34 1.1M
20260430T12Z_MSC_GDPS_WindSpeed_IsbL-0700_LatLon0.15_PT219H.grib2 2026-04-30 16:34 1.5M
20260430T12Z_MSC_GDPS_WindSpeed_IsbL-0850_LatLon0.15_PT219H.grib2 2026-04-30 16:34 1.8M
20260430T12Z_MSC_GDPS_WindSpeed_IsbL-0925_LatLon0.15_PT219H.grib2 2026-04-30 16:34 1.8M
20260430T12Z_MSC_GDPS_WindSpeed_IsbL-1000_LatLon0.15_PT219H.grib2 2026-04-30 16:34 1.9M
20260430T12Z_MSC_GDPS_WindU_AGL-10m_LatLon0.15_PT219H.grib2 2026-04-30 16:34 1.3M
20260430T12Z_MSC_GDPS_WindU_AGL-120m_LatLon0.15_PT219H.grib2 2026-04-30 16:34 1.0M
20260430T12Z_MSC_GDPS_WindU_AGL-40m_LatLon0.15_PT219H.grib2 2026-04-30 16:34 967K
20260430T12Z_MSC_GDPS_WindU_AGL-80m_LatLon0.15_PT219H.grib2 2026-04-30 16:34 1.0M
20260430T12Z_MSC_GDPS_WindU_IsbL-0001_LatLon0.15_PT219H.grib2 2026-04-30 16:34 508K
20260430T12Z_MSC_GDPS_WindU_IsbL-0005_LatLon0.15_PT219H.grib2 2026-04-30 16:34 694K
20260430T12Z_MSC_GDPS_WindU_IsbL-0500_LatLon0.15_PT219H.grib2 2026-04-30 16:34 1.1M
20260430T12Z_MSC_GDPS_WindU_IsbL-0700_LatLon0.15_PT219H.grib2 2026-04-30 16:34 1.2M
20260430T12Z_MSC_GDPS_WindU_IsbL-0850_LatLon0.15_PT219H.grib2 2026-04-30 16:34 1.4M
20260430T12Z_MSC_GDPS_WindU_IsbL-0925_LatLon0.15_PT219H.grib2 2026-04-30 16:34 1.5M
20260430T12Z_MSC_GDPS_WindU_IsbL-1000_LatLon0.15_PT219H.grib2 2026-04-30 16:34 1.4M
20260430T12Z_MSC_GDPS_WindV_AGL-10m_LatLon0.15_PT219H.grib2 2026-04-30 16:34 1.3M
20260430T12Z_MSC_GDPS_WindV_AGL-120m_LatLon0.15_PT219H.grib2 2026-04-30 16:34 1.0M
20260430T12Z_MSC_GDPS_WindV_AGL-40m_LatLon0.15_PT219H.grib2 2026-04-30 16:34 969K
20260430T12Z_MSC_GDPS_WindV_AGL-80m_LatLon0.15_PT219H.grib2 2026-04-30 16:34 1.0M
20260430T12Z_MSC_GDPS_WindV_IsbL-0001_LatLon0.15_PT219H.grib2 2026-04-30 16:34 691K
20260430T12Z_MSC_GDPS_WindV_IsbL-0005_LatLon0.15_PT219H.grib2 2026-04-30 16:34 772K
20260430T12Z_MSC_GDPS_WindV_IsbL-0500_LatLon0.15_PT219H.grib2 2026-04-30 16:34 1.1M
20260430T12Z_MSC_GDPS_WindV_IsbL-0700_LatLon0.15_PT219H.grib2 2026-04-30 16:34 1.2M
20260430T12Z_MSC_GDPS_WindV_IsbL-0850_LatLon0.15_PT219H.grib2 2026-04-30 16:34 1.4M
20260430T12Z_MSC_GDPS_WindV_IsbL-0925_LatLon0.15_PT219H.grib2 2026-04-30 16:34 1.5M
20260430T12Z_MSC_GDPS_WindV_IsbL-1000_LatLon0.15_PT219H.grib2 2026-04-30 16:34 1.4M